Location: Newark
(44.2003°N, 3.2583°E)
Time: 21:31:18
(UTC+00:00)

OTV 5 (USA 277) - Pass Details

Date: 29 October 2019
Orbit: 310 x 324 km, 54.5° (Epoch: 17 October)

Event Time Altitude Azimuth Distance (km) Brightness Sun altitude
Rises 17:16:29 0° 194° (SSW) 2,043 ? -6.9°
Reaches altitude 10° 17:18:54 10° 171° (S) 1,222 ? -7.3°
Maximum altitude 17:20:39 16° 131° (SE) 962 ? -7.6°
Enters shadow 17:22:16 11° 93° (E) 1,196 ? -7.9°
